Location: Prairie State College
(41.5244°N, 87.6382°W)
Time: 09:09:02
(UTC-06:00)

ISS - All Passes

Search period start: 10 February 2016 00:00
Search period end: 20 February 2016 00:00
Orbit: 399 x 408 km, 51.6° (Epoch: 10 February)

Date Brightness Start Highest point End Pass type
(mag) Time Alt. Az. Time Alt. Az. Time Alt. Az.
10 Feb - 14:25:59 10° S 14:28:20 19° SE 14:30:41 10° E daylight
10 Feb - 16:01:22 10° WSW 16:04:32 50° NNW 16:07:43 10° NE daylight
10 Feb - 17:39:24 10° NW 17:41:33 16° NNW 17:43:43 10° NNE visible
10 Feb - 19:16:58 10° NNW 19:18:59 15° N 19:20:59 10° NE visible
10 Feb - 20:53:00 10° NW 20:56:06 39° NNE 20:59:10 10° E night (unlit)
10 Feb - 22:29:41 10° WNW 22:32:25 25° SW 22:35:08 10° SSE night (unlit)
11 Feb - 15:08:36 10° SW 15:11:51 87° SSE 15:15:07 10° NE daylight
11 Feb - 16:46:08 10° WNW 16:48:39 20° NNW 16:51:10 10° NNE daylight
11 Feb - 18:24:12 10° NNW 18:26:01 14° N 18:27:49 10° NE visible
11 Feb - 20:00:30 10° NW 20:03:18 26° NNE 20:06:06 10° E visible
11 Feb - 21:36:44 10° WNW 21:39:53 49° SW 21:43:01 10° SE night (unlit)
12 Feb - 14:16:08 10° SSW 14:19:14 44° SE 14:22:21 10° ENE daylight
12 Feb - 15:52:56 10° W 15:55:47 27° NNW 15:58:39 10° NE daylight
12 Feb - 17:31:13 10° NW 17:33:03 14° N 17:34:51 10° NNE daylight
12 Feb - 19:07:58 10° NNW 19:10:25 19° NNE 19:12:52 10° ENE visible
12 Feb - 20:44:00 10° NW 20:47:15 84° NE 20:50:30 10° SE visible
12 Feb - 22:22:25 10° WSW 22:23:14 11° SW 22:24:02 10° SW night (unlit)
13 Feb - 13:24:05 10° S 13:26:41 23° SE 13:29:19 10° E daylight
13 Feb - 14:59:51 10° WSW 15:02:58 43° NNW 15:06:06 10° NE daylight
13 Feb - 16:38:00 10° NW 16:40:03 15° N 16:42:07 10° NNE daylight
13 Feb - 18:15:23 10° NNW 18:17:29 16° N 18:19:35 10° NE visible
13 Feb - 19:51:23 10° NW 19:54:32 46° NNE 19:57:40 10° ESE visible
13 Feb - 21:28:17 10° W 21:30:47 21° SW 21:33:16 10° S night (unlit)
14 Feb - 12:32:54 10° SSE 12:34:13 12° SE 12:35:31 10° ESE daylight
14 Feb - 14:06:59 10° WSW 14:10:14 77° NW 14:13:29 10° NE daylight
14 Feb - 15:44:42 10° WNW 15:47:06 19° NNW 15:49:30 10° NNE daylight
14 Feb - 17:22:38 10° NNW 17:24:29 14° N 17:26:19 10° NE daylight
14 Feb - 18:58:49 10° NW 19:01:43 29° NNE 19:04:36 10° E visible
14 Feb - 20:35:10 10° WNW 20:38:13 39° SW 20:41:16 10° SSE visible
15 Feb - 13:14:22 10° SW 13:17:33 54° SE 13:20:45 10° ENE daylight
15 Feb - 14:51:25 10° W 14:54:10 25° NNW 14:56:56 10° NE daylight
15 Feb - 16:29:40 10° NW 16:31:28 14° N 16:33:15 10° NNE daylight
15 Feb - 18:06:16 10° NNW 18:08:50 21° NNE 18:11:23 10° ENE visible
15 Feb - 19:42:20 10° WNW 19:45:35 80° SW 19:48:49 10° SE visible
16 Feb - 12:22:07 10° SSW 12:24:57 27° SE 12:27:46 10° ENE daylight
16 Feb - 13:58:15 10° W 14:01:18 37° NNW 14:04:22 10° NE daylight
16 Feb - 15:36:28 10° NW 15:38:26 15° N 15:40:25 10° NNE daylight
16 Feb - 17:13:39 10° NNW 17:15:51 17° NNE 17:18:04 10° NE daylight
16 Feb - 18:49:38 10° NW 18:52:51 55° NNE 18:56:01 10° ESE visible
16 Feb - 20:26:48 10° W 20:29:00 17° SW 20:31:11 10° S visible
17 Feb - 11:30:31 10° SSE 11:32:24 15° SE 11:34:18 10° E daylight
17 Feb - 13:05:16 10° WSW 13:08:30 64° NNW 13:11:44 10° NE daylight
17 Feb - 14:43:08 10° WNW 14:45:26 18° NNW 14:47:43 10° NNE daylight
17 Feb - 16:20:55 10° NNW 16:22:50 14° N 16:24:44 10° NE daylight
17 Feb - 17:57:01 10° NW 18:00:01 33° NNE 18:03:00 10° E visible
17 Feb - 19:33:30 10° WNW 19:36:26 32° SW 19:39:22 10° SSE visible
18 Feb - 12:12:31 10° SW 12:15:45 67° SE 12:18:59 10° ENE daylight
18 Feb - 13:49:47 10° WNW 13:52:27 23° NNW 13:55:07 10° NE daylight
18 Feb - 15:27:59 10° NNW 15:29:47 14° N 15:31:34 10° NNE daylight
18 Feb - 17:04:25 10° NW 17:07:06 23° NNE 17:09:46 10° ENE daylight
18 Feb - 18:40:34 10° WNW 18:43:47 65° SW 18:46:59 10° SE visible
19 Feb - 11:20:07 10° SSW 11:23:05 33° SE 11:26:04 10° ENE daylight
19 Feb - 12:56:32 10° W 12:59:31 32° NNW 13:02:31 10° NE daylight
19 Feb - 14:34:48 10° NW 14:36:42 14° N 14:38:37 10° NNE daylight
19 Feb - 16:11:48 10° NNW 16:14:07 18° NNE 16:16:25 10° ENE daylight
19 Feb - 17:47:48 10° NW 17:51:02 66° NE 17:54:15 10° ESE daylight
19 Feb - 19:25:19 10° W 19:27:06 14° SW 19:28:53 10° SSW visible
